Temperature
22 21 22 21 21 21 20 20 20 20 20 20 20 20 20 20 20 20 20 20 19 19 19 19 19 18 18 18 18 18 18 18 19 19 18 18 18 18 18 18 17 16 17
22 21 22 22 21 21 21 20 20 20 20 20 20 20 20 20 20 20 20 20 19 19 19 19 19 18 18 18 18 18 19 18 18 18 18 18 18 18 18 17 17 17 17
21 21 22 22 21 21 21 21 20 20 20 20 20 20 20 20 20 20 20 20 19 19 19 19 19 19 19 19 19 19 19 19 18 18 18 17 17 17 17 17 17 17 17
21 21 22 22 21 21 21 21 21 20 20 20 20 20 20 20 20 20 20 20 20 19 19 19 19 19 19 19 19 19 19 19 18 18 17 17 17 18 18 17 17 17 17
21 21 22 22 21 21 21 21 21 21 20 20 20 20 20 20 20 20 20 20 20 20 20 20 20 20 20 19 19 19 19 19 19 17 17 17 17 18 18 17 17 17 17
21 20 22 22 21 21 21 21 21 21 21 21 21 21 21 20 20 20 20 20 20 20 20 20 20 20 20 20 19 19 19 19 19 17 17 17 17 18 18 18 17 17 17
21 20 21 22 21 21 21 21 21 21 21 21 21 21 21 20 20 20 20 20 20 19 19 19 19 19 19 19 19 19 19 19 18 18 17 17 17 18 18 18 18 17 17
21 21 20 21 21 21 21 21 21 21 21 21 21 21 21 21 20 20 20 20 19 19 19 19 19 19 19 19 19 19 19 19 18 18 17 17 17 18 18 18 18 18 17
22 21 20 20 21 21 21 21 21 21 21 21 21 21 21 20 20 20 20 20 19 19 19 19 19 19 19 19 19 19 19 19 17 18 18 17 18 18 18 18 18 18 18
21 21 19 19 19 20 20 20 21 20 20 20 20 20 20 20 20 20 20 19 19 19 19 19 19 19 19 19 19 19 19 18 18 18 18 18 18 18 18 18 18 18 18
21 20 20 19 19 19 19 20 20 20 20 20 20 20 20 19 19 19 19 19 19 19 19 19 19 18 18 18 18 18 18 18 18 18 18 18 18 18 18 18 18 18 18
20 20 19 19 19 19 19 19 19 19 19 19 19 19 19 18 19 19 18 19 19 19 19 19 19 18 18 17 18 18 17 17 18 18 18 18 18 18 18 18 18 18 17
20 20 19 19 19 19 19 19 19 18 18 18 18 18 18 18 18 18 18 18 18 19 18 18 18 18 17 18 18 18 17 18 18 18 18 18 18 18 18 18 18 18 18
20 20 19 19 19 19 19 19 18 18 18 18 18 18 18 18 18 18 18 18 18 18 18 18 18 17 17 17 17 17 18 18 18 18 18 18 18 18 18 18 18 18 18
19 19 19 18 19 19 19 19 18 18 18 18 18 18 18 18 18 18 18 18 18 18 18 18 17 17 17 17 17 17 17 18 18 18 18 18 18 18 18 18 18 18 18
19 19 18 19 19 19 18 18 18 18 18 18 18 17 17 17 17 18 17 17 18 18 18 18 17 17 17 17 17 17 17 17 17 17 17 18 18 18 18 18 18 18 18
18 18 18 18 18 18 18 18 18 17 17 17 17 17 17 17 17 17 17 17 17 17 17 17 17 17 17 17 17 17 17 17 17 17 17 17 17 17 18 18 18 18 18
18 17 17 17 17 18 18 18 17 17 17 17 17 17 17 17 17 17 17 17 17 17 17 17 17 17 17 17 17 17 17 17 17 17 17 17 17 17 17 17 18 17 18
17 17 17 17 17 17 17 17 17 17 17 17 16 16 16 16 16 16 16 16 17 16 16 17 17 17 17 17 17 17 17 17 17 17 17 17 17 17 17 17 17 17 17
17 17 17 17 17 17 17 17 17 17 16 16 16 16 16 16 16 16 16 16 16 16 16 16 17 17 17 17 17 17 17 17 17 17 17 17 17 17 17 17 17 17 17
16 16 16 17 17 17 16 16 16 16 16 16 16 16 16 16 16 16 16 16 16 16 16 16 16 16 16 16 16 17 17 17 17 17 17 17 17 17 17 17 17 17 17
16 16 16 16 17 17 16 16 16 16 16 16 15 15 15 15 15 15 15 15 15 15 16 16 16 16 16 16 16 18 19 19 17 17 17 17 17 17 17 17 16 16 16
16 16 16 17 16 16 16 16 16 16 16 15 15 15 15 15 15 15 15 15 15 15 15 16 16 16 16 16 16 17 19 20 19 18 17 17 16 16 17 17 16 16 16
16 16 16 16 16 16 16 15 15 15 15 15 15 15 15 15 15 15 15 15 15 15 15 15 15 16 16 16 16 16 17 18 18 19 17 17 16 16 16 16 16 16 16
16 16 16 16 16 16 15 15 15 15 15 15 14 14 14 14 14 14 14 15 15 15 15 15 15 15 15 15 16 16 16 16 16 18 19 18 17 17 16 16 16 16 16
16 16 16 15 15 15 15 15 14 14 14 14 14 14 14 14 14 14 14 14 14 14 14 14 14 15 15 15 15 16 16 16 17 17 18 17 18 17 16 16 16 16 15
Wind_Speed
15 20 23 19 17 15 15 15 15 16 17 17 17 16 16 15 14 14 13 11 10 9 8 8 7 7 8 8 9 10 11 11 12 12 12 12 11 11 12 11 10 13 14
18 21 23 19 17 16 15 15 15 16 16 16 16 16 15 15 14 13 12 11 10 9 8 7 7 7 7 8 9 10 10 10 10 11 11 11 11 11 11 7 4 14 12
20 22 22 20 18 17 16 15 15 15 15 16 15 15 15 14 13 12 11 10 9 8 8 7 6 7 7 8 8 9 9 9 10 9 10 10 11 10 9 8 10 13 12
20 21 21 21 19 17 16 16 15 15 15 15 14 14 14 13 12 12 11 10 9 8 8 7 6 7 7 7 7 8 8 8 9 9 8 8 10 11 9 9 10 11 11
18 19 20 21 19 17 16 15 15 14 14 14 14 13 13 12 12 11 11 10 9 8 8 7 7 7 7 7 7 7 8 8 8 10 6 6 8 12 9 9 9 10 10
18 18 21 20 19 17 16 15 15 14 14 13 13 12 12 11 11 11 10 10 9 8 8 7 7 7 7 7 7 8 8 8 10 9 6 6 7 11 10 9 9 10 10
18 17 21 20 18 17 16 16 15 14 14 13 13 12 11 11 10 10 10 9 8 8 7 7 7 7 8 8 8 9 9 9 11 6 7 7 7 10 9 10 10 10 10
17 16 19 19 18 17 16 15 15 14 14 13 12 12 11 11 10 10 9 9 9 9 8 8 8 8 9 9 9 9 10 11 13 9 8 8 9 9 9 11 11 12 12
16 15 16 18 17 16 15 15 14 13 13 12 12 11 11 10 10 10 10 10 10 10 9 9 9 10 10 10 11 11 11 12 14 11 11 9 12 11 11 12 14 15 14
14 14 14 14 15 15 15 15 14 13 12 12 11 11 11 11 11 12 12 12 12 11 11 11 12 12 13 13 13 14 13 13 16 15 12 10 14 13 13 14 15 17 18
13 12 13 13 13 13 13 14 14 13 13 12 13 13 12 13 14 14 16 14 13 13 13 14 14 14 15 16 17 16 15 14 16 15 12 11 15 14 14 15 16 19 20
15 14 12 12 12 11 9 10 10 11 11 12 11 11 13 12 12 12 9 12 13 15 15 16 17 16 17 15 17 19 15 17 16 13 13 12 15 15 16 17 17 18 21
15 14 13 12 11 9 6 6 6 6 6 9 10 11 11 11 11 12 11 11 14 16 16 15 17 16 15 13 11 13 15 15 13 13 13 18 18 18 19 19 19 19 20
14 14 13 12 10 7 5 5 5 5 4 6 8 11 11 9 9 10 9 10 10 10 11 11 10 13 13 14 15 14 14 13 13 12 10 15 19 20 20 20 20 20 21
13 12 11 10 8 6 5 4 4 4 5 7 7 9 11 10 11 10 9 9 11 11 10 9 10 11 11 12 13 14 14 15 15 15 12 14 18 20 20 20 21 21 22
11 11 10 9 8 5 4 4 4 5 5 8 8 11 12 11 10 10 10 10 10 10 10 9 10 10 10 10 12 13 13 14 14 14 14 13 18 20 20 20 21 22 22
8 7 7 7 6 5 5 5 5 6 7 8 9 11 12 13 12 10 10 10 9 10 10 9 10 9 10 10 12 12 11 12 12 12 13 12 13 18 20 20 20 20 21
3 3 3 3 3 4 5 5 6 7 8 8 9 10 12 13 13 10 9 8 7 8 7 8 9 9 9 9 9 9 9 9 11 11 12 12 12 12 16 20 19 18 19
3 2 2 1 2 4 5 6 6 6 7 8 9 9 9 11 11 9 8 6 6 6 7 8 8 7 8 8 8 8 8 9 9 11 11 12 12 11 11 13 17 17 17
3 2 1 1 1 3 4 5 5 6 6 6 6 7 8 7 7 6 6 5 5 6 6 7 6 6 7 7 8 7 8 9 9 9 10 10 10 12 12 11 11 14 18
3 2 1 1 1 2 3 5 5 5 5 5 5 5 6 6 5 5 5 3 4 6 7 7 6 7 7 6 6 7 8 10 9 8 8 9 9 9 9 8 9 8 10
3 2 0 1 2 3 3 4 4 5 5 5 4 4 5 5 5 4 4 4 5 5 6 6 6 6 6 6 6 6 6 7 6 8 7 7 7 7 7 8 6 7 9
2 1 1 2 3 4 5 5 4 4 5 4 4 4 4 4 4 4 5 5 5 6 6 7 7 9 7 6 7 7 6 4 3 6 6 6 6 6 7 5 7 7 9
1 1 2 3 4 5 6 6 6 6 6 5 4 4 4 4 4 5 5 5 6 7 7 7 8 7 8 9 8 8 8 5 4 4 7 7 7 7 6 5 6 6 8
3 3 4 4 5 5 6 7 8 8 7 6 5 4 5 4 4 4 4 4 5 6 7 7 7 9 9 10 9 8 8 7 8 6 5 6 7 7 6 5 5 5 4
5 6 6 7 7 7 8 9 9 10 10 9 8 7 6 5 4 4 4 4 4 4 5 6 8 10 11 11 10 9 8 8 8 8 7 7 6 5 4 4 4 3 3
Wind_Direction
159 149 148 157 159 158 155 153 154 157 160 161 160 157 156 155 155 154 153 150 148 144 139 131 121 116 112 112 113 114 116 118 121 122 122 121 120 121 120 127 141 116 115
152 147 150 157 159 159 157 154 153 155 158 159 159 159 157 156 156 157 157 155 154 152 146 139 131 124 119 117 118 121 124 126 128 129 132 130 125 124 126 133 92 114 125
150 147 154 157 160 161 160 157 155 155 157 158 158 159 159 159 159 159 160 160 161 160 155 149 142 135 130 127 126 129 133 136 139 145 168 149 131 131 131 125 108 125 132
150 151 158 155 161 163 162 160 159 159 159 159 160 161 161 161 162 164 166 167 168 168 162 157 153 147 141 138 139 141 145 149 154 174 183 139 139 134 141 139 137 141 142
150 152 152 157 162 165 164 163 163 163 163 163 164 165 166 166 168 171 173 176 177 176 172 170 167 160 155 154 155 156 160 163 170 209 153 146 134 138 155 155 154 154 152
152 156 152 161 164 166 167 167 167 167 167 168 169 170 171 173 175 178 181 184 184 183 182 181 180 175 171 171 172 173 174 177 196 195 162 175 146 148 167 169 169 166 166
157 156 154 163 165 168 169 170 171 171 172 173 174 176 178 181 184 188 190 192 193 194 196 196 194 192 188 187 188 188 189 197 225 194 181 189 145 146 177 182 184 182 180
159 158 152 163 167 170 172 174 176 177 178 179 181 183 185 189 193 198 200 203 206 208 210 211 209 207 205 203 202 202 204 216 225 217 209 202 146 163 192 197 198 197 195
162 158 158 167 170 174 176 179 180 182 184 187 190 192 196 200 204 209 213 215 218 221 222 222 221 221 218 215 213 213 214 224 247 228 217 213 162 186 208 214 211 206 204
165 165 163 170 171 177 180 183 186 188 191 195 200 204 208 212 216 218 222 217 224 229 230 231 230 230 228 223 220 218 219 223 236 240 225 205 166 194 213 220 218 213 208
170 169 170 172 174 184 187 178 188 193 198 203 207 209 216 224 222 215 223 214 222 232 235 237 237 236 235 230 227 224 222 231 231 240 232 186 173 200 217 223 223 218 212
173 176 176 180 177 189 192 180 199 205 201 215 222 217 221 231 239 238 209 210 227 236 239 240 242 241 239 239 224 218 228 231 240 234 228 182 187 209 221 225 226 224 218
175 180 182 183 181 191 193 197 208 219 217 225 232 234 239 243 238 238 233 216 224 231 237 234 234 238 238 240 241 224 230 235 235 238 225 182 198 215 224 226 227 227 224
179 184 186 182 182 190 203 208 218 233 238 248 239 241 242 242 246 244 239 240 234 232 235 243 240 241 244 245 243 241 237 238 241 241 234 187 202 216 225 227 227 228 227
180 184 186 185 183 188 199 228 235 254 263 262 267 253 251 250 247 245 244 243 245 243 237 239 246 248 248 249 245 240 239 237 240 242 239 206 210 220 227 229 228 228 228
184 186 186 191 191 199 217 239 256 260 264 274 269 265 260 258 255 250 245 241 244 246 246 245 247 250 250 250 251 248 244 242 239 239 242 228 215 219 226 229 229 229 228
186 186 193 200 199 211 237 252 263 268 268 270 272 271 265 262 260 255 252 244 244 245 244 243 248 249 249 247 246 246 244 244 244 239 243 246 236 219 220 226 230 230 229
150 164 194 219 222 234 252 268 271 275 279 277 280 275 269 268 263 257 253 246 244 242 240 239 242 244 246 249 252 251 246 242 242 242 242 239 243 243 219 215 223 227 228
89 128 165 216 252 267 275 273 272 275 279 279 277 275 274 270 269 262 253 250 247 242 243 248 238 241 249 252 254 247 249 247 244 243 244 245 240 240 243 207 208 221 227
89 105 128 168 250 277 277 274 275 275 278 280 283 282 278 272 273 272 256 247 249 242 240 244 251 239 255 256 261 263 254 251 243 240 240 239 240 239 238 235 220 220 218
95 93 76 338 301 283 286 291 292 294 295 294 293 293 293 290 287 279 280 254 238 242 244 246 243 235 237 238 249 252 243 237 238 241 238 241 232 232 239 235 239 242 219
98 99 148 282 295 290 289 285 285 293 293 297 304 302 300 303 298 284 278 265 251 250 246 248 244 253 245 222 240 254 247 219 217 224 220 222 228 219 223 224 233 240 255
86 57 360 328 310 301 297 288 286 274 277 289 299 300 303 304 302 297 287 277 266 258 250 241 241 238 244 235 232 246 254 248 195 190 208 212 211 224 232 232 238 242 248
8 339 322 304 301 299 294 300 304 306 309 310 306 314 313 310 311 313 306 287 272 264 258 249 239 242 241 241 224 235 256 293 263 203 194 194 204 219 239 253 256 250 248
307 304 301 299 297 294 293 294 292 297 303 302 303 304 305 311 306 309 309 303 291 281 273 263 257 245 238 242 239 225 222 223 238 254 219 195 202 212 219 237 254 259 257
294 293 294 295 293 292 291 293 290 294 294 295 291 291 286 289 292 298 297 293 285 283 279 270 260 247 245 244 246 241 227 221 222 226 228 221 220 215 215 238 240 235 242
Height
1511 1512 1513 1516 1519 1522 1525 1527 1530 1532 1534 1536 1538 1539 1540 1541 1543 1544 1545 1546 1547 1549 1550 1551 1552 1553 1554 1555 1555 1556 1556 1556 1557 1557 1558 1558 1559 1560 1560 1561 1562 1564 1564
1510 1511 1514 1517 1520 1523 1525 1528 1530 1533 1535 1537 1538 1540 1541 1542 1543 1545 1546 1547 1548 1549 1550 1552 1552 1553 1554 1555 1556 1557 1557 1558 1558 1559 1559 1560 1560 1561 1562 1563 1564 1566 1566
1510 1511 1514 1517 1520 1523 1526 1528 1531 1533 1535 1537 1539 1540 1542 1543 1544 1545 1546 1547 1549 1550 1551 1552 1553 1554 1555 1556 1557 1557 1558 1559 1559 1560 1561 1563 1563 1563 1564 1565 1565 1566 1567
1511 1513 1515 1518 1521 1524 1526 1529 1531 1534 1536 1537 1539 1541 1542 1543 1545 1546 1547 1548 1549 1550 1551 1552 1554 1554 1555 1556 1557 1558 1559 1560 1560 1561 1564 1566 1565 1564 1565 1566 1567 1568 1569
1513 1515 1516 1519 1522 1525 1527 1530 1532 1534 1536 1538 1539 1541 1542 1543 1545 1546 1547 1548 1549 1551 1552 1553 1554 1555 1556 1557 1558 1559 1560 1560 1561 1563 1566 1567 1567 1566 1566 1567 1568 1569 1570
1513 1517 1517 1520 1523 1526 1528 1530 1532 1534 1536 1538 1539 1541 1542 1543 1545 1546 1547 1548 1550 1551 1552 1553 1554 1555 1556 1557 1558 1559 1560 1561 1562 1566 1567 1567 1568 1566 1567 1568 1569 1570 1571
1516 1519 1519 1521 1524 1526 1529 1531 1533 1535 1536 1538 1539 1541 1542 1543 1545 1546 1547 1548 1549 1550 1552 1553 1554 1555 1555 1556 1557 1558 1559 1561 1563 1567 1567 1568 1568 1567 1568 1568 1569 1571 1572
1518 1520 1520 1522 1524 1527 1529 1531 1533 1535 1536 1538 1539 1540 1542 1543 1544 1545 1546 1547 1548 1550 1551 1552 1553 1554 1554 1555 1556 1557 1558 1560 1563 1566 1566 1567 1566 1567 1567 1569 1570 1571 1572
1520 1521 1521 1523 1525 1527 1529 1531 1533 1535 1536 1538 1539 1540 1541 1542 1543 1544 1545 1546 1547 1548 1549 1550 1551 1552 1553 1554 1555 1556 1557 1558 1560 1564 1565 1565 1564 1565 1567 1568 1569 1570 1572
1520 1522 1523 1525 1526 1528 1530 1531 1533 1534 1536 1537 1538 1539 1540 1541 1542 1542 1543 1544 1545 1546 1547 1548 1549 1550 1551 1552 1552 1553 1554 1555 1557 1561 1562 1562 1561 1563 1565 1566 1568 1569 1570
1519 1521 1523 1525 1526 1528 1531 1531 1532 1533 1534 1536 1537 1537 1538 1540 1541 1541 1542 1542 1543 1544 1545 1546 1547 1548 1548 1549 1550 1550 1551 1553 1555 1557 1559 1558 1558 1560 1562 1564 1565 1567 1569
1517 1520 1522 1524 1525 1528 1531 1531 1532 1533 1534 1534 1536 1536 1537 1538 1539 1540 1540 1539 1540 1541 1542 1543 1543 1544 1545 1547 1547 1547 1548 1550 1552 1553 1554 1553 1554 1556 1558 1560 1562 1564 1566
1515 1518 1520 1522 1523 1526 1528 1529 1531 1532 1533 1533 1534 1534 1534 1536 1536 1537 1537 1537 1536 1537 1538 1539 1540 1541 1542 1543 1544 1544 1545 1548 1548 1549 1550 1548 1550 1552 1553 1555 1558 1560 1562
1514 1516 1519 1520 1522 1523 1525 1527 1528 1530 1531 1531 1531 1530 1531 1531 1532 1533 1533 1534 1534 1534 1534 1536 1536 1537 1537 1538 1539 1540 1541 1542 1544 1545 1545 1544 1546 1547 1549 1551 1553 1555 1557
1513 1515 1517 1518 1520 1521 1522 1524 1526 1526 1527 1528 1527 1526 1526 1526 1527 1528 1527 1528 1529 1530 1530 1530 1531 1532 1533 1533 1534 1535 1535 1537 1538 1539 1540 1539 1541 1543 1544 1546 1548 1550 1552
1513 1514 1516 1516 1517 1519 1520 1521 1521 1522 1522 1523 1522 1522 1521 1521 1521 1521 1521 1522 1523 1524 1525 1526 1527 1527 1528 1529 1529 1530 1531 1532 1533 1533 1535 1536 1536 1538 1539 1541 1543 1545 1547
1513 1514 1514 1515 1516 1517 1518 1519 1519 1519 1519 1519 1518 1516 1515 1515 1514 1514 1515 1516 1517 1518 1519 1520 1521 1522 1523 1524 1525 1526 1526 1527 1528 1528 1529 1531 1532 1533 1534 1536 1538 1540 1542
1512 1513 1513 1515 1515 1515 1516 1516 1516 1516 1515 1514 1513 1512 1510 1509 1508 1508 1509 1510 1511 1513 1514 1515 1517 1518 1519 1520 1521 1522 1522 1522 1523 1524 1525 1526 1528 1530 1530 1531 1533 1535 1537
1511 1512 1512 1513 1514 1514 1514 1514 1513 1512 1511 1509 1508 1506 1505 1504 1503 1503 1502 1503 1504 1506 1508 1511 1513 1513 1514 1515 1516 1517 1517 1518 1519 1520 1521 1522 1523 1524 1526 1527 1527 1529 1531
1511 1512 1512 1513 1513 1513 1513 1512 1511 1509 1508 1506 1504 1502 1501 1500 1498 1497 1496 1497 1498 1500 1503 1506 1507 1507 1509 1511 1513 1513 1513 1514 1515 1516 1516 1518 1519 1520 1522 1524 1524 1525 1526
1512 1512 1512 1512 1512 1512 1512 1511 1510 1508 1506 1504 1502 1499 1498 1496 1495 1494 1492 1492 1494 1496 1498 1501 1503 1504 1506 1508 1509 1510 1510 1510 1511 1511 1512 1514 1515 1517 1518 1519 1520 1521 1522
1512 1512 1512 1512 1511 1511 1510 1509 1507 1505 1504 1502 1500 1497 1495 1493 1492 1491 1490 1490 1491 1493 1494 1496 1498 1500 1503 1504 1506 1508 1507 1508 1506 1508 1508 1510 1512 1514 1515 1516 1516 1516 1518
1513 1512 1512 1511 1510 1510 1509 1508 1506 1503 1501 1500 1498 1495 1493 1491 1490 1489 1488 1488 1489 1490 1491 1492 1494 1497 1499 1501 1503 1505 1504 1502 1504 1505 1505 1507 1509 1510 1512 1513 1513 1513 1513
1513 1512 1511 1510 1509 1508 1507 1506 1505 1503 1501 1499 1496 1494 1491 1490 1488 1487 1487 1487 1487 1488 1488 1489 1492 1493 1495 1498 1499 1500 1501 1501 1502 1502 1504 1504 1505 1506 1508 1509 1509 1509 1509
1513 1512 1510 1509 1507 1506 1504 1503 1501 1500 1499 1497 1494 1492 1489 1488 1486 1485 1484 1484 1484 1484 1485 1486 1487 1489 1491 1494 1496 1496 1497 1498 1499 1500 1500 1502 1503 1504 1505 1505 1505 1506 1506
1512 1511 1509 1507 1506 1504 1502 1500 1499 1497 1495 1494 1492 1490 1488 1486 1484 1483 1481 1480 1480 1480 1481 1481 1482 1484 1486 1488 1490 1492 1493 1494 1495 1496 1497 1499 1500 1501 1501 1502 1502 1502 1502